Pompano Beach, FL

4:37 AM EST on February 22, 2017 (GMT -0500)
Pompano Beach

Weather History for KPMP - September, 2014

Change the Weather History Date:

Friday, September 5, 2014

  Actual Average Record
Temperature  
Mean Temperature 61 °F -  
Max Temperature 91 °F 91 °F 95 °F (1982)
Min Temperature 32 °F 74 °F 32 °F (2014)
Degree Days  
Heating Degree Days 4    
Growing Degree Days 11 (Base 50)    
Moisture  
Dew Point 71 °F    
Average Humidity 74    
Maximum Humidity 100    
Minimum Humidity 61    
Precipitation  
Precipitation 0.16 in - - ()
Sea Level Pressure  
Sea Level Pressure 30.08 in    
Wind  
Wind Speed 7 mph (SE)    
Max Wind Speed 15 mph    
Max Gust Speed -    
Visibility 9 miles    
Events Rain , Thunderstorm    
Averages and records for this station are not official NWS values.
T = Trace of Precipitation, MM = Missing Value Source: NWS Daily Summary

Daily Weather History Graph

Daily Weather History Graph

Search for Another Location

Airport or City:

Trip Planner

Search our weather history database for the weather conditions in past years. The results will help you decide how hot, cold, wet, or windy it might be!

Date:

Astronomy

Sep. 05, 2014 Rise Set
Actual Time 7:02 AM EDT 7:35 PM EDT
Civil Twilight 6:38 AM EDT 7:59 PM EDT
Nautical Twilight 6:11 AM EDT 8:26 PM EDT
Astronomical Twilight 5:43 AM EDT 8:54 PM EDT
Moon 4:49 PM EDT (9/5) 3:10 AM EDT (9/5)
Length of Visible Light 13h 20m
Length of Day
12h 33m
Waxing Gibbous, 83% of the Moon is Illuminated
Sep 5
Waxing Gibbous
Sep 8
Full
Sep 15
Last Quarter
Sep 24
New
Oct 1
First Quarter

Hourly Weather History & Observations

Time (EDT) Temp. Windchill Dew Point Humidity Pressure Visibility Wind Dir Wind Speed Gust Speed Precip Events Conditions
12:53 AM 82.9 °F - 73.9 °F 74% 30.11 in 10.0 mi SE 6.9 mph - N/A   Clear
1:53 AM 84.0 °F - 73.9 °F 72% 30.09 in 10.0 mi ESE 5.8 mph - N/A   Clear
2:53 AM 84.0 °F - 73.9 °F 72% 30.07 in 10.0 mi ESE 5.8 mph - N/A   Partly Cloudy
3:53 AM 84.0 °F - 73.9 °F 72% 30.06 in 10.0 mi SE 5.8 mph - N/A   Partly Cloudy
4:53 AM 84.0 °F - 73.9 °F 72% 30.06 in 10.0 mi ESE 5.8 mph - N/A   Partly Cloudy
5:53 AM 84.0 °F - 75.0 °F 74% 30.06 in 10.0 mi ESE 8.1 mph - N/A   Partly Cloudy
6:53 AM 84.0 °F - 73.9 °F 72% 30.08 in 10.0 mi ESE 5.8 mph - N/A   Clear
7:53 AM 86.0 °F - 75.0 °F 70% 30.09 in 10.0 mi East 5.8 mph - N/A   Scattered Clouds
8:09 AM 82.9 °F - 75.9 °F 79% 30.10 in 2.5 mi South 9.2 mph - 0.03 in Rain Rain
8:15 AM 82.9 °F - 75.9 °F 79% 30.10 in 4.0 mi SSW 10.4 mph - 0.08 in Rain Rain
8:21 AM 82.0 °F - 75.9 °F 82% 30.10 in 2.0 mi SW 3.5 mph - 0.15 in Rain , Thunderstorm Heavy Rain
8:31 AM 82.9 °F - 75.0 °F 77% 30.10 in 3.0 mi West 8.1 mph - 0.16 in Rain , Thunderstorm Light Rain
8:40 AM 82.0 °F - 73.9 °F 76% 30.10 in 10.0 mi WNW 4.6 mph - 0.16 in Rain Light Rain
8:53 AM 84.0 °F - 75.9 °F 76% 30.10 in 9.0 mi WNW 4.6 mph - 0.16 in   Scattered Clouds
9:53 AM 88.0 °F - 75.9 °F 67% 30.12 in 10.0 mi East 8.1 mph - N/A   Scattered Clouds
10:53 AM 90.0 °F - 75.9 °F 63% 30.13 in 10.0 mi North - - N/A   Unknown
11:53 AM - - - N/A% 30.12 in - North - - N/A   Unknown
12:53 PM - - - N/A% 30.11 in - North - - N/A   Unknown
1:53 PM 32.0 °F 22.5 °F 32.0 °F 100% 30.08 in 10.0 mi ESE 12.7 mph - N/A   Scattered Clouds
2:53 PM 32.0 °F 21.6 °F 32.0 °F 100% 30.05 in 10.0 mi SSE 15.0 mph - N/A   Scattered Clouds
3:53 PM 90.0 °F - 75.0 °F 61% 30.04 in 10.0 mi ESE 12.7 mph - N/A   Unknown
4:53 PM 89.1 °F - 75.9 °F 65% 30.04 in 10.0 mi ESE 12.7 mph - N/A   Partly Cloudy
6:53 PM 87.1 °F - 75.0 °F 67% 30.04 in 10.0 mi SE 6.9 mph - N/A   Clear
7:53 PM 86.0 °F - 73.9 °F 67% 30.05 in 10.0 mi East 6.9 mph - N/A   Clear
8:53 PM 84.9 °F - 73.0 °F 67% 30.07 in 10.0 mi ESE 6.9 mph - N/A   Clear
9:53 PM 84.9 °F - 73.0 °F 67% 30.08 in 10.0 mi ESE 9.2 mph - N/A   Partly Cloudy
10:53 PM 86.0 °F - 75.0 °F 70% 30.08 in 10.0 mi ESE 6.9 mph - N/A   Scattered Clouds
11:53 PM 84.9 °F - 75.0 °F 72% 30.06 in 10.0 mi ESE 10.4 mph - N/A   Clear